Location: Bogis-Bossey
(46.3500°N, 6.1667°E)
Time: 16:42:41
(UTC+00:00)

Helios 1A Rocket - Pass Details

Date: 17 August 2022
Orbit: 556 x 581 km, 98.2° (Epoch: 01 October)

Event Time Altitude Azimuth Distance (km) Brightness Sun altitude
Exits shadow 20:44:03 37° 95° (E) 911 3.5 -18.6°
Maximum altitude 20:44:44 40° 70° (ENE) 859 3.6 -18.7°
Drops below altitude 10° 20:48:33 10° 1° (N) 1,883 6.1 -19.2°
Sets 20:50:47 0° 353° (N) 2,781 7.3 -19.4°
